When you browse on this site, cookies collect data to enhance your experience and personalize the content and advertising you see.
Visit our Privacy Policy to learn more. By continuing to use the site, you agree to this use of cookies and data.
  • In Austria
  • List of Countries
  • For 7 days
  • Water Temperature
  • Satellite Maps
  • Weather Map
  • News
  • Weather Widgets
  • user-avatar
    Login

    Hourly Weather Korçe

    Today, 18 April, Thursday

    Time Temperature Precipitation Wind Pressure Humidity
    00:00 +5°C° 0 mm 1 mps 667 mmHg 79%
    01:00 +5°C° 0 mm 1 mps 666 mmHg 78%
    02:00 +5°C° 0 mm 1 mps 666 mmHg 78%
    03:00 +5°C° 0 mm 1 mps 666 mmHg 77%
    04:00 +4°C° 0 mm 1 mps 666 mmHg 76%
    05:00 +5°C° 0 mm 1 mps 667 mmHg 72%
    06:00 +7°C° 0 mm 1 mps 667 mmHg 68%
    07:00 +8°C° 0 mm 1 mps 667 mmHg 61%
    08:00 +10°C° 0.1 mm 1 mps 668 mmHg 56%
    09:00 +11°C° 0.1 mm 1 mps 668 mmHg 51%
    10:00 +13°C° 0.1 mm 1 mps 669 mmHg 46%
    11:00 +13°C° 0.5 mm 1 mps 669 mmHg 47%
    12:00 +13°C° 0.5 mm 1 mps 669 mmHg 48%
    13:00 +13°C° 0.5 mm 2 mps 669 mmHg 49%
    14:00 +12°C° 0.9 mm 2 mps 669 mmHg 52%
    15:00 +12°C° 0.9 mm 2 mps 669 mmHg 54%
    16:00 +10°C° 0.9 mm 2 mps 668 mmHg 57%
    17:00 +10°C° 0.6 mm 1 mps 668 mmHg 63%
    18:00 +9°C° 0.6 mm 1 mps 668 mmHg 69%
    19:00 +7°C° 0.6 mm 1 mps 668 mmHg 75%
    20:00 +7°C° 0 mm 1 mps 669 mmHg 76%
    21:00 +6°C° 0 mm 1 mps 669 mmHg 78%
    22:00 +5°C° 0 mm 2 mps 669 mmHg 80%
    23:00 +4°C° 0 mm 2 mps 669 mmHg 80%

    Tomorrow, 19 April, Friday

    Time Temperature Precipitation Wind Pressure Humidity
    00:00 +4°C° 0 mm 2 mps 670 mmHg 81%
    01:00 +4°C° 0 mm 2 mps 670 mmHg 82%
    02:00 +3°C° 0 mm 2 mps 670 mmHg 83%
    03:00 +3°C° 0 mm 2 mps 670 mmHg 84%
    04:00 +3°C° 0 mm 2 mps 670 mmHg 84%
    05:00 +4°C° 0 mm 2 mps 670 mmHg 81%
    06:00 +5°C° 0 mm 2 mps 671 mmHg 77%
    07:00 +7°C° 0 mm 2 mps 671 mmHg 74%
    08:00 +8°C° 0 mm 2 mps 671 mmHg 65%
    09:00 +11°C° 0 mm 1 mps 672 mmHg 56%
    10:00 +13°C° 0 mm 1 mps 672 mmHg 47%
    11:00 +13°C° 0 mm 2 mps 672 mmHg 46%
    12:00 +14°C° 0 mm 2 mps 672 mmHg 44%
    13:00 +14°C° 0 mm 2 mps 672 mmHg 43%
    14:00 +13°C° 0 mm 3 mps 672 mmHg 46%
    15:00 +12°C° 0 mm 3 mps 671 mmHg 49%
    16:00 +12°C° 0 mm 3 mps 671 mmHg 53%
    17:00 +10°C° 0 mm 3 mps 671 mmHg 62%
    18:00 +9°C° 0 mm 2 mps 670 mmHg 72%
    19:00 +7°C° 0 mm 2 mps 670 mmHg 81%
    20:00 +6°C° 0 mm 2 mps 670 mmHg 83%
    21:00 +7°C° 0 mm 1 mps 670 mmHg 86%
    22:00 +6°C° 0 mm 1 mps 670 mmHg 88%
    23:00 +6°C° 0 mm 1 mps 670 mmHg 88%

    Day after tomorrow, 20 April, Saturday

    Time Temperature Precipitation Wind Pressure Humidity
    00:00 +6°C° 0 mm 1 mps 670 mmHg 87%
    01:00 +6°C° 0 mm 1 mps 669 mmHg 86%
    02:00 +5°C° 0 mm 1 mps 669 mmHg 86%
    03:00 +5°C° 0 mm 1 mps 669 mmHg 86%
    04:00 +4°C° 0 mm 2 mps 669 mmHg 86%
    05:00 +5°C° 0 mm 2 mps 669 mmHg 80%
    06:00 +7°C° 0 mm 2 mps 670 mmHg 74%
    07:00 +8°C° 0 mm 2 mps 670 mmHg 69%
    08:00 +9°C° 0 mm 2 mps 670 mmHg 61%
    09:00 +10°C° 0 mm 2 mps 671 mmHg 54%
    10:00 +12°C° 0 mm 3 mps 671 mmHg 47%
    11:00 +12°C° 0 mm 3 mps 671 mmHg 46%
    12:00 +13°C° 0 mm 2 mps 671 mmHg 45%
    13:00 +14°C° 0 mm 2 mps 671 mmHg 44%
    14:00 +13°C° 0 mm 2 mps 671 mmHg 45%
    15:00 +13°C° 0 mm 2 mps 671 mmHg 46%
    16:00 +13°C° 0 mm 2 mps 671 mmHg 47%
    17:00 +10°C° 0 mm 2 mps 671 mmHg 52%
    18:00 +9°C° 0 mm 2 mps 671 mmHg 57%
    19:00 +7°C° 0 mm 2 mps 670 mmHg 62%
    20:00 +7°C° 0 mm 2 mps 670 mmHg 64%
    21:00 +6°C° 0 mm 2 mps 671 mmHg 66%
    22:00 +5°C° 0 mm 2 mps 671 mmHg 67%
    23:00 +5°C° 0 mm 2 mps 671 mmHg 69%

    21 April, Sunday

    Time Temperature Precipitation Wind Pressure Humidity
    00:00 +4°C° 0 mm 2 mps 671 mmHg 70%
    01:00 +4°C° 0 mm 2 mps 671 mmHg 71%
    02:00 +4°C° 0 mm 2 mps 670 mmHg 71%
    03:00 +5°C° 0 mm 1 mps 670 mmHg 70%
    04:00 +6°C° 0 mm 1 mps 670 mmHg 70%
    05:00 +6°C° 0 mm 1 mps 670 mmHg 68%
    06:00 +7°C° 0 mm 1 mps 671 mmHg 66%
    07:00 +8°C° 0 mm 1 mps 671 mmHg 64%
    08:00 +10°C° 0 mm 1 mps 672 mmHg 62%
    09:00 +11°C° 0 mm 1 mps 672 mmHg 60%
    10:00 +13°C° 0 mm 1 mps 672 mmHg 58%
    11:00 +13°C° 0.1 mm 1 mps 672 mmHg 58%
    12:00 +13°C° 0.1 mm 2 mps 672 mmHg 58%
    13:00 +13°C° 0.1 mm 2 mps 671 mmHg 59%
    14:00 +13°C° 0.2 mm 2 mps 671 mmHg 61%
    15:00 +13°C° 0.2 mm 1 mps 671 mmHg 64%
    16:00 +13°C° 0.2 mm 1 mps 670 mmHg 67%
    17:00 +11°C° 0.1 mm 1 mps 670 mmHg 75%
    18:00 +10°C° 0.1 mm 1 mps 670 mmHg 83%
    19:00 +9°C° 0.1 mm 1 mps 669 mmHg 91%
    20:00 +9°C° 0 mm 1 mps 669 mmHg 92%
    21:00 +7°C° 0 mm 0 mps 669 mmHg 93%
    22:00 +7°C° 0 mm 0 mps 669 mmHg 95%
    23:00 +7°C° 0 mm 1 mps 669 mmHg 95%

    22 April, Monday

    Time Temperature Precipitation Wind Pressure Humidity
    00:00 +7°C° 0 mm 1 mps 669 mmHg 94%
    01:00 +7°C° 0 mm 1 mps 668 mmHg 94%
    02:00 +7°C° 0 mm 1 mps 668 mmHg 93%
    03:00 +5°C° 0 mm 2 mps 668 mmHg 92%
    04:00 +5°C° 0 mm 2 mps 668 mmHg 92%
    05:00 +6°C° 0 mm 2 mps 668 mmHg 88%
    06:00 +7°C° 0 mm 2 mps 668 mmHg 84%
    07:00 +8°C° 0 mm 2 mps 668 mmHg 80%
    08:00 +9°C° 0 mm 2 mps 669 mmHg 72%
    09:00 +11°C° 0 mm 3 mps 669 mmHg 63%
    10:00 +13°C° 0 mm 3 mps 669 mmHg 55%
    11:00 +14°C° 0 mm 3 mps 669 mmHg 52%
    12:00 +14°C° 0 mm 3 mps 669 mmHg 49%
    13:00 +15°C° 0 mm 4 mps 669 mmHg 47%
    14:00 +16°C° 0 mm 3 mps 668 mmHg 49%
    15:00 +14°C° 0 mm 3 mps 668 mmHg 52%
    16:00 +14°C° 0 mm 3 mps 668 mmHg 55%
    17:00 +13°C° 0.3 mm 2 mps 668 mmHg 64%
    18:00 +10°C° 0.3 mm 2 mps 667 mmHg 73%
    19:00 +9°C° 0.3 mm 2 mps 667 mmHg 82%
    20:00 +8°C° 0.1 mm 2 mps 667 mmHg 84%
    21:00 +7°C° 0.1 mm 3 mps 667 mmHg 85%
    22:00 +5°C° 0.1 mm 3 mps 666 mmHg 86%
    23:00 +5°C° 0 mm 3 mps 666 mmHg 87%

    23 April, Tuesday

    Time Temperature Precipitation Wind Pressure Humidity
    00:00 +5°C° 0 mm 3 mps 666 mmHg 88%
    01:00 +4°C° 0 mm 4 mps 665 mmHg 89%
    02:00 +4°C° 0.1 mm 4 mps 665 mmHg 89%
    03:00 +4°C° 0.1 mm 4 mps 665 mmHg 88%
    04:00 +4°C° 0.1 mm 4 mps 664 mmHg 88%
    05:00 +5°C° 0.1 mm 4 mps 664 mmHg 85%
    06:00 +5°C° 0.1 mm 4 mps 665 mmHg 82%
    07:00 +6°C° 0.1 mm 4 mps 665 mmHg 79%
    08:00 +8°C° 0 mm 4 mps 666 mmHg 71%
    09:00 +12°C° 0 mm 5 mps 666 mmHg 63%
    10:00 +14°C° 0 mm 5 mps 667 mmHg 55%
    11:00 +15°C° 0 mm 5 mps 667 mmHg 51%
    12:00 +16°C° 0 mm 5 mps 668 mmHg 47%
    13:00 +19°C° 0 mm 6 mps 668 mmHg 43%
    14:00 +17°C° 0 mm 6 mps 667 mmHg 45%
    15:00 +16°C° 0 mm 5 mps 667 mmHg 48%
    16:00 +16°C° 0 mm 5 mps 667 mmHg 50%
    17:00 +14°C° 0 mm 4 mps 667 mmHg 58%
    18:00 +12°C° 0 mm 4 mps 666 mmHg 66%
    19:00 +10°C° 0 mm 3 mps 666 mmHg 75%
    20:00 +9°C° 0 mm 3 mps 666 mmHg 78%
    21:00 +8°C° 0 mm 3 mps 666 mmHg 82%
    22:00 +7°C° 0 mm 3 mps 666 mmHg 86%
    23:00 +7°C° 0 mm 3 mps 666 mmHg 86%
    Show more